Content
SEND FEEDBACK

Daily
Averages
Monthly
Summary
Saudi Arabia

QAL'AT BISHAH, SAUDI ARABIA


Home > Middle East > Saudi Arabia
Elevation: 3795 feet     Latitude: 19 59N     Longitude: 042 37E

WEATHER
 
SELECT A DAY
Number of Records: 165,498;   Date Range: 7/1/96 - 9/18/14
 
SHARE

PRINT THIS DATA

[ ← Previous Day ]
WEATHER ALMANAC - JANUARY 3, 2013
[ Next Day → ]
[ °C ]   °F
Weather ElementAverageHighLow
Temperature66 °F84.2 °F (2:00 pm)48.2 °F (4:00 am)
Dewpoint32.8 °F39.2 °F (11:00 am)26.6 °F (5:00 pm)
Humidity29.6 %54 % (6:00 am)7 % (3:00 pm)
Barometer30.14 in30.18 in (8:00 am)30.06 in (3:00 pm)
Wind Speed4.6 mph18.4 mph (6:00 pm)
Weather ElementAverage
Visibility6 mi
Wind DirectionE (92.8 °)

Weather ElementTotal
Precipitation---
Cooling Degree Days1.2 (Base 65)
Growing Degree Days16.2 (Base 50)
Averaged from 31 records on January 3, 2013
WEATHER CONDITIONS BREAKOUT
WIND DIRECTION BREAKOUT
WEATHER BY HOUR - JANUARY 3, 2013
[ °C ]   °F
Local TimeTemperatureDewpointHumidityBarometerVisibilityWind DirectionWind SpeedGust SpeedPrecipitationEventsConditions
12:00 AM60.8 °F33.8 °F36 %30.15 inCalmClear
1:00 AM55.4 °F32.0 °F41 %30.15 inCalmClear
2:00 AM53.6 °F32.0 °F44 %30.15 inCalmClear
3:00 AM54.0 °F34.0 °F34 %6.0 miCalm
3:00 AM53.6 °F33.8 °F47 %30.15 inCalmClear
4:00 AM48.2 °F28.4 °F46 %30.12 inCalmClear
5:00 AM50.0 °F30.2 °F47 %30.12 inCalmClear
6:00 AM48.2 °F32.0 °F54 %30.15 inCalmClear
6:00 AM49.0 °F32.0 °F40 %6.0 miCalm
7:00 AM50.0 °F32.0 °F50 %30.15 inCalmClear
8:00 AM55.4 °F32.0 °F41 %30.18 inSW (230°)3.5 mphClear
9:00 AM63.0 °F34.0 °F22 %6.0 miSW (230°)4.6 mph
9:00 AM62.6 °F33.8 °F34 %30.18 inSW (230°)4.6 mphClear
10:00 AM71.6 °F37.4 °F29 %30.18 inSW (220°)3.5 mphClear
11:00 AM77.0 °F39.2 °F26 %30.18 inWSW (240°)4.6 mphClear
12:00 PM78.8 °F35.6 °F21 %30.15 inSW (230°)3.5 mphClear
12:00 PM79.0 °F36.0 °F12 %6.0 miSW (230°)3.5 mph
1:00 PM82.4 °F32.0 °F16 %30.09 inCalmClear
2:00 PM84.2 °F32.0 °F15 %30.09 inENE (70°)6.9 mphClear
3:00 PM83.0 °F30.0 °F7 %6.0 miESE (120°)6.9 mph
3:00 PM84.2 °F30.2 °F14 %30.06 inESE (120°)6.9 mphClear
4:00 PM82.4 °F28.4 °F14 %30.06 inSE (130°)3.5 mphClear
5:00 PM80.6 °F26.6 °F14 %30.06 inENE (60°)4.6 mphClear
6:00 PM73.4 °F32.0 °F22 %30.09 inEast (80°)18.4 mphClear
6:00 PM74.0 °F32.0 °F12 %6.0 miEast (80°)18.4 mph
7:00 PM71.6 °F32.0 °F23 %30.12 inEast (90°)16.1 mphClear
8:00 PM68.0 °F33.8 °F28 %30.15 inESE (110°)16.1 mphClear
9:00 PM64.0 °F36.0 °F23 %6.0 miESE (110°)9.2 mph
9:00 PM64.4 °F35.6 °F34 %30.18 inESE (110°)9.2 mphClear
10:00 PM62.6 °F35.6 °F37 %30.18 inCalmClear
11:00 PM60.8 °F33.8 °F36 %30.18 inCalmClear
Hourly data recorded from OEBH, located miles away from Qal'at Bishah, Saudi Arabia







STORIES FROM OUR PARTNERS